This is the latest recevied weather packets stored in our database for station/object VK5FR. If no packets are shown the sender has not sent any weather packets the latest 10 day(s).
| Time | Temp. | Humidity | Pressure | Rain* | Wind** | Luminosity | Snow |
|---|---|---|---|---|---|---|---|
| 1777781249 | 16.67° C | 69% | 1007.7 hPa | 0 mm | - | - | - |
| 1777780947 | 16.67° C | 73% | 1007.7 hPa | 0 mm | - | - | - |
| 1777780643 | 16.67° C | 71% | 1007.7 hPa | 0 mm | - | - | - |
| 1777780341 | 16.67° C | 71% | 1007.8 hPa | 0 mm | - | - | - |
| 1777780038 | 17.22° C | 72% | 1007.7 hPa | 0 mm | - | - | - |
| 1777779735 | 16.67° C | 72% | 1007.8 hPa | 0 mm | - | - | - |
| 1777779433 | 16.67° C | 70% | 1007.9 hPa | 0 mm | - | - | - |
| 1777779130 | 16.67° C | 72% | 1007.9 hPa | 0 mm | - | - | - |
| 1777778828 | 16.67° C | 74% | 1007.8 hPa | 0 mm | - | - | - |
| 1777778526 | 16.11° C | 78% | 1007.8 hPa | 0 mm | - | - | - |
| 1777778223 | 15.56° C | 81% | 1007.9 hPa | 0 mm | - | - | - |
| 1777777921 | 15.56° C | 84% | 1007.7 hPa | 0 mm | - | - | - |
| 1777777617 | 15° C | 85% | 1008.1 hPa | 0 mm | - | - | - |
| 1777777314 | 14.44° C | 85% | 1008.2 hPa | 0 mm | - | - | - |
| 1777777011 | 14.44° C | 82% | 1008.5 hPa | 0 mm | - | - | - |
| 1777776709 | 15° C | 79% | 1008.5 hPa | 0 mm | - | - | - |
| 1777776404 | 15.56° C | 77% | 1008.7 hPa | 0 mm | - | - | - |
| 1777776102 | 16.11° C | 75% | 1008.6 hPa | 0 mm | - | - | - |
| 1777775798 | 16.11° C | 72% | 1008.5 hPa | 0 mm | - | - | - |
| 1777775496 | 16.11° C | 72% | 1008.5 hPa | 0 mm | - | - | - |
| 1777775192 | 16.11° C | 73% | 1008.5 hPa | 0 mm | - | - | - |
| 1777774886 | 16.11° C | 73% | 1008.4 hPa | 0 mm | - | - | - |
| 1777774584 | 16.11° C | 75% | 1008.4 hPa | 0 mm | - | - | - |
| 1777774280 | 15.56° C | 75% | 1008.4 hPa | 0 mm | - | - | - |
| 1777773977 | 16.11° C | 74% | 1008.4 hPa | 0 mm | - | - | - |
* Rain latest hour (hover to see other rain measurements)
** Current wind speed in m/s (hover to see current wind gust speed)